Weather in Patras

Greece     38˚14′37″N   21˚43′59″E
temp.,
°C
wind,
m/s
gust,
m/s
humid.,
%
clouds,
%
prec.,
mm/h
press.,
hPa
HPBL,
m
1 december, tue
tue123:00+14˚ene56760 0.0 1017384
02:00+13˚ene57771 0.0 1017379
05:00+13˚ene67799 0.0 1017369
08:00+12˚e78774 0.0 1017337
11:00+14˚e776910 0.0 1018434
14:00+15˚ene766621 0.0 1017498
17:00+13˚ene667457 0.1 1017357
20:00+13˚e667555 0.1 1018294
2 december, wed
wed223:00+12˚e557556 0.0 1019277
02:00+12˚e557538 0.0 1019307
05:00+12˚e557545 0.0 1019319
08:00+12˚ene557643 0.0 1019340
11:00+14˚ene546745 0.0 1019641
14:00+13˚ene767268 0.0 1018394
17:00+13˚ene777487 0.0 1018309
20:00+13˚ene677692 0.0 1019335
3 december, thu
thu323:00+13˚e6778100 0.0 1019346
02:00+12˚e787998 0.0 1019372
05:00+12˚e788153 0.0 1018375
08:00+12˚e788029 0.0 1018450
11:00+14˚ene88730 0.0 1017487
14:00+14˚e99710 0.0 1015474
17:00+13˚e897767 0.0 1013403
20:00+13˚e897983 0.0 1013449
4 december, fri
fri423:00+14˚e6779100 2.1 1011450
02:00+13˚e6778100 2.4 1010346
05:00+13˚ese3475100 1.5 1008262
08:00+13˚ese2478100 10.2 1009258
11:00+15˚sw456735 1.4 1010992
14:00+16˚wsw456517 1.7 1009921
17:00+15˚wsw557123 0.4 1009864
20:00+14˚sw347240 0.5 1011530
5 december, sat
sat523:00+13˚sw017141 0.0 1012353
02:00+13˚e117228 0.0 1012205
05:00+12˚e227044 0.0 1011191
08:00+12˚e336863 0.0 1012200
11:00+15˚ene4460100 0.0 1012417
14:00+16˚ne4359100 0.0 1010719
17:00+16˚ene666434 0.0 1010263
20:00+15˚e566726 0.0 1011242